Regional Weather Roundup
Issued by NWS

Home | Current Version | Previous Version | Text Only | Print | Product List | Glossary On
Versions: 1 2 3 4 5 6 7 8 9 10 11 12 13 14 15 16 17 18 19 20 21 22 23 24 25 26 27 28 29
000
ASUS44 KLIX 250711
RWRLA
LOUISIANA WEATHER ROUNDUP
NATIONAL WEATHER SERVICE NEW ORLEANS LA
200 AM CDT WED MAY 25 2016

NOTE: "FAIR" INDICATES FEW OR NO CLOUDS BELOW 12,000 FEET WITH NO
      SIGNIFICANT WEATHER AND/OR OBSTRUCTIONS TO VISIBILITY.
      SKY/WX - SKY CONDITION AND SIGNIFICANT WEATHER.
      TMP - AIR TEMPERATURE.    DP   - DEWPOINT TEMPERATURE.
      RH  - RELATIVE HUMIDITY.  PRES - PRESSURE.
      HX  - HEAT INDEX.         WCI  - WIND CHILL INDEX.

*  THESE STATIONS ARE NOT NWS OR FAA STATIONS AND ARE NOT UNDER
   NWS QUALITY CONTROL.

LAZ040-048-061>063-065-066-069-250800-
SOUTHEAST LOUISIANA

CITY           SKY/WX    TMP DP  RH WIND       PRES   REMARKS
N.O. AUDUBON     N/A     75  73  92 MISG        N/A
N.O. INTL ARPT CLEAR     76  71  85 SE9       30.09F
N.O. LAKEFRONT PTCLDY    76  70  82 S7        30.10F
N.O. DOWNTOWN* FAIR      77  71  82 S8        30.10F
RESERVE*       FAIR      75  73  91 SE5       30.08F
SLIDELL        CLEAR     69  67  93 CALM      30.09F
BATON ROUGE    PTCLDY    75  71  87 SE7       30.07F
BOOTHVILLE     CLEAR     74  71  91 SE3       30.11F
BELLE CHASSE   PTCLDY    75  72  90 SE6       30.10F
BOGALUSA*      FAIR      67  64  89 CALM      30.12F
GALLIANO*      MOSUNNY   76  73  88 SE5       30.09F
NEW ROADS*     CLOUDY    74  72  92 SE3       30.07S
GONZALES*      FAIR      74  73  96 SE5       30.06F
HAMMOND*       CLEAR     72  68  88 SE5       30.08F
HOUMA*           N/A     74  73  98 E5        30.08F
PORT FOURCHON* PTSUNNY   79  73  83 SE12      30.10F

$$

LAZ041-044-053-054-250800-
SOUTHWEST LOUISIANA

CITY           SKY/WX    TMP DP  RH WIND       PRES   REMARKS
LAKE CHARLES   CLOUDY    77  75  93 S6        30.04F
LAFAYETTE      CLEAR     75  73  93 CALM      30.06F
PATTERSON      CLEAR     75  74  96 SE6       30.07F
SALT POINT       N/A     77  75  93 VRB5      30.04F
NEW IBERIA     CLEAR     74  72  93 SE8       30.06F
CHENAULT AIRPK MOCLDY    74  73  97 SE5       30.04F

$$

LAZ027-028-250800-
CENTRAL LOUISIANA

CITY           SKY/WX    TMP DP  RH WIND       PRES   REMARKS
FORT POLK      CLOUDY    77  73  88 S10       30.03F
ALEXANDRIA INT PTCLDY    74  72  93 S7        30.04S
ALEXANDRIA     PTCLDY    72  69  90 CALM      30.06S

$$

LAZ001-002-250800-
NORTHWEST LOUISIANA

CITY           SKY/WX    TMP DP  RH WIND       PRES   REMARKS
SHREVEPORT     MOCLDY    77  73  87 S6        30.00F
BARKSDALE AFB  PTCLDY    76  73  90 S9        30.01F
DTN SHREVEPORT MOCLDY    78  72  81 S9        30.01F

$$

LAZ014-016-250800-
NORTHEAST LOUISIANA

CITY           SKY/WX    TMP DP  RH WIND       PRES   REMARKS
MONROE         CLEAR     76  70  82 S8        30.05F
TALLULAH       CLEAR     74  68  81 S10       30.06F

$$





USA.gov is the U.S. government's official web portal to all federal, state and local government web resources and services.